Location: ???????????
(38.2661°N, 23.2350°E)
Time: 17:14:30
(UTC+00:00)

Cosmos 1805 - Pass Details

Date: 25 September 2023
Orbit: 501 x 504 km, 82.5° (Epoch: 02 December)

Event Time Altitude Azimuth Distance (km) Brightness Sun altitude
Rises 16:45:36 0° 153° (SSE) 2,583 6.4 -5.8°
Reaches altitude 10° 16:48:08 10° 135° (SE) 1,704 5.4 -6.3°
Maximum altitude 16:50:50 19° 89° (E) 1,237 4.5 -6.9°
Drops below altitude 10° 16:53:32 10° 42° (NE) 1,713 5.5 -7.4°
Sets 16:56:05 0° 25° (NNE) 2,602 6.6 -7.9°
